Regional Weather Roundup
Issued by NWS

Home | Current Version | Previous Version | Graphics & Text | Print | Product List | Glossary On
Versions: 1 2 3 4 5 6 7 8 9 10 11 12 13 14 15 16 17 18 19 20 21 22 23 24 25 26 27 28 29 30 31 32 33 34 35 36 37 38 39 40 41 42 43 44 45 46 47 48 49 50
000
ASUS45 KABQ 270410
RWRNM
WEATHER ROUNDUP FOR NEW MEXICO
NATIONAL WEATHER SERVICE ALBUQUERQUE NM
1000 PM MDT TUE AUG 26 2014

NOTE: "FAIR" MEANS FEW OR NO CLOUDS BELOW 12,000 FEET AGL WITH NO
       SIGNIFICANT WEATHER OR OBSTRUCTIONS TO VISION.

      THIS PRODUCT IS RELEASED AS TWO VERSIONS.  ONE VERSION NEAR
      THE TOP OF THE HOUR CONTAINING PRELIMINARY DATA FROM ALBUQUERQUE
      AND OTHER STATIONS.  A FINAL VERSION WITH ADDITIONAL DATA IS
      ISSUED ABOUT 10 MINUTES AFTER THE HOUR.

NMZ501-503-504-510>518-270500-
NORTHWEST PLATEAU/NORTHCENTRAL MOUNTAINS

CITY           SKY/WX    TMP DP  RH WIND       PRES   REMARKS
FARMINGTON     RAIN      57  54  89 W12       30.32R
LOS ALAMOS     CLOUDY    57  54  89 SE3       30.35S
SANTA FE       CLOUDY    59  56  89 N6        30.30R
TAOS           CLOUDY    55  52  88 N5        30.34S
ANGEL FIRE     CLOUDY    51  48  92 CALM      30.44R

$$
NMZ402-403-502-505>509-270500-
WESTCENTRAL MOUNTAINS/SOUTHWEST MOUNTAINS

CITY           SKY/WX    TMP DP  RH WIND       PRES   REMARKS
GALLUP         CLOUDY    57  51  80 E9        30.35R
SILVER CITY    CLOUDY    70  59  68 NW9       30.26R

$$
NMZ407-409-411-412-270500-
SOUTHERN DESERTS

CITY           SKY/WX    TMP DP  RH WIND       PRES   REMARKS
LORDSBURG      CLOUDY    68  63  83 W3        30.18R
DEMING         CLOUDY    75  61  61 SW8       30.17R
LAS CRUCES     CLOUDY    73  58  58 NE5       30.19R
HOLLOMAN AFB   CLOUDY    70  65  85 W3        30.17R
ALAMOGORDO     CLOUDY    68  63  83 N7        30.18S
T OR C         CLOUDY    75  58  55 N3        30.19R

$$
NMZ519>523-270500-
CENTRAL VALLEYS/CENTRAL HIGHLANDS

CITY           SKY/WX    TMP DP  RH WIND       PRES   REMARKS
ALBUQUERQUE    LGT RAIN  69  56  62 E7        30.24R
DOUBLE EAGLE   CLOUDY    63  57  82 N8        30.28R
MORIARTY ARPT  FAIR      58  55  90 NW3       30.32R
CLINES CORNERS MOCLDY    57  54  89 S7        30.34R
BELEN          CLOUDY    67  58  72 SE6       30.23R
SOCORRO        MOCLDY    64  61  89 CALM      30.20S

$$
NMZ524>526-539-540-270500-
SOUTHCENTRAL MOUNTAINS

CITY           SKY/WX    TMP DP  RH WIND       PRES   REMARKS
RUIDOSO        NOT AVBL

$$
NMZ527>531-270500-
NORTHEAST HIGHLANDS/NORTHEAST PLAINS

CITY           SKY/WX    TMP DP  RH WIND       PRES   REMARKS
LAS VEGAS      CLOUDY    59  55  87 S3        30.34R
RATON          LGT RAIN  60  57  89 W9        30.30S
CLAYTON        RAIN      64  61  90 E6        30.27R FOG

$$
NMZ532>537-270500-
EASTCENTRAL PLAINS

CITY           SKY/WX    TMP DP  RH WIND       PRES   REMARKS
TUCUMCARI      LGT RAIN  69  63  81 SW3       30.18S
CANNON AFB     MOCLDY    68  65  89 N9        30.19F
CLOVIS AIRPORT   N/A     68  61  77 NW12      30.22S

$$
NMZ028-029-538-270500-
SOUTHEAST PLAINS

CITY           SKY/WX    TMP DP  RH WIND       PRES   REMARKS
ROSWELL        CLOUDY    73  63  70 CALM      30.15R
CARLSBAD       CLOUDY    74  65  73 E3        30.10R
HOBBS          CLOUDY    77  59  53 NW15      30.14R


$$



USA.gov is the U.S. government's official web portal to all federal, state and local government web resources and services.